Location: Newark
(44.6768°N, 22.5302°E)
Time: 23:36:50
(UTC+00:00)

X-37B - Visible Passes

Search period start: 28 January 2022 00:00
Search period end: 07 February 2022 00:00
Orbit: 331 x 339 km, 45.0° (Epoch: 27 January)

Date Brightness Start Highest point End Pass type
(mag) Time Alt. Az. Time Alt. Az. Time Alt. Az.
28 Jan 2.0 16:24:23 10° SSW 16:26:37 21° SSE 16:28:22 13° ESE visible
28 Jan 3.5 17:59:01 10° WSW 17:59:36 15° WSW 17:59:36 15° WSW visible
29 Jan 0.9 16:44:12 10° SW 16:46:54 43° SSE 16:48:02 27° ESE visible
30 Jan 0.2 17:04:28 10° WSW 17:07:17 77° S 17:07:39 62° ESE visible
31 Jan 0.9 17:24:55 10° W 17:27:16 56° W 17:27:16 56° W visible
01 Feb 0.3 16:09:55 10° WSW 16:12:44 77° S 16:15:33 10° E visible
01 Feb 2.5 17:45:24 10° W 17:46:52 27° W 17:46:52 27° W visible
02 Feb 0.2 16:30:22 10° W 16:33:12 82° N 16:35:16 17° E visible
02 Feb 3.6 18:05:52 10° W 18:06:29 15° W 18:06:29 15° W visible
03 Feb 0.2 16:50:51 10° W 16:53:41 85° N 16:54:55 30° E visible
04 Feb 0.4 17:11:19 10° W 17:14:08 67° SSW 17:14:37 52° SE visible
05 Feb 1.6 17:31:52 10° W 17:34:25 35° SSW 17:34:25 35° SSW visible
06 Feb 0.6 16:16:45 10° W 16:19:34 67° SSW 16:22:23 10° ESE visible
06 Feb 3.0 17:52:45 10° WSW 17:54:19 17° SW 17:54:19 17° SW visible
